EW8328 Weather Reports


time (UTC)temp
F
wind
direction
speed
knots
gust
knots
rain 1hr
in
rain 24hr
in
rain mn
in
humidity
%
barometer
mb
20260509112359 53 357 4.3 7.8 0.00 0.17 0.07 89 1019.7
20260509111359 52 45 1.7 8.7 0.00 0.21 0.07 90 1019.7
20260509110900 52 14 2.6 7.8 0.00 0.21 0.07 90 1019.7
20260509110400 52 27 2.6 6.1 0.01 0.21 0.07 90 1019.7
20260509105900 52 2 2.6 6.1 0.01 0.21 0.07 91 1019.7
20260509104900 52 8 1.7 4.3 0.02 0.21 0.07 91 1019.7
20260509104400 52 19 1.7 4.3 0.05 0.21 0.07 91 1019.8
20260509103900 52 64 1.7 5.2 0.06 0.21 0.07 91 1019.9
20260509103401 51 15 0.9 2.6 0.06 0.21 0.07 91 1019.9
20260509102900 51 48 0.9 2.6 0.06 0.21 0.07 91 1019.9
20260509102400 51 12 0.9 2.6 0.06 0.21 0.07 90 1020.0
20260509101900 51 348 0.9 2.6 0.06 0.21 0.07 90 1020.0
20260509095900 52 20 1.7 4.3 0.05 0.20 0.06 88 1019.9
20260509095400 52 23 1.7 2.6 0.04 0.20 0.06 88 1019.8
20260509094859 52 9 1.7 2.6 0.03 0.19 0.05 87 1019.8
20260509094359 52 9 1.7 2.6 0.01 0.17 0.02 85 1019.8
20260509093900 53 18 1.7 6.1 0.00 0.16 0.02 84 1019.7
20260509093359 53 13 1.7 4.3 0.00 0.16 0.02 84 1019.6
20260509092900 53 21 1.7 5.2 0.00 0.16 0.02 84 1019.5
20260509092400 53 34 1.7 6.1 0.00 0.16 0.02 84 1019.6
20260509091900 53 41 1.7 5.2 0.00 0.16 0.02 84 1019.5
20260509091400 53 4 3.5 6.1 0.00 0.16 0.02 85 1019.4
20260509090859 53 35 1.7 4.3 0.00 0.16 0.02 85 1019.5
20260509090400 53 37 1.7 5.2 0.00 0.16 0.02 85 1019.5
20260509085900 53 20 1.7 5.2 0.00 0.16 0.02 86 1019.5
20260509085401 53 23 1.7 6.1 0.00 0.16 0.02 86 1019.6
20260509084859 53 33 2.6 7.8 0.00 0.16 0.02 86 1019.5
20260509083900 53 4 1.7 4.3 0.00 0.16 0.02 87 1019.5
20260509083400 52 71 1.7 6.1 0.00 0.16 0.02 86 1019.5
20260509082900 52 344 1.7 6.1 0.00 0.16 0.02 87 1019.5
20260509082359 52 17 4.3 7.0 0.00 0.16 0.02 88 1019.5
20260509081901 52 37 1.7 2.6 0.00 0.16 0.02 89 1019.5
20260509081400 52 305 0.9 2.6 0.00 0.16 0.02 90 1019.4
20260509080859 51 202 2.6 2.6 0.00 0.16 0.02 90 1019.4
20260509080359 51 126 1.7 4.3 0.00 0.16 0.02 91 1019.5
20260509075359 50 202 0.9 1.7 0.00 0.16 0.02 93 1019.3
20260509074900 50 202 0.9 1.7 0.00 0.16 0.02 93 1019.4
20260509074359 50 202 0.9 2.6 0.00 0.16 0.02 93 1019.4
20260509073859 50 202 0.9 1.7 0.00 0.16 0.02 93 1019.4
20260509073359 49 202 0.9 1.7 0.00 0.16 0.02 93 1019.4
20260509072859 49 202 0.9 1.7 0.01 0.16 0.02 93 1019.3
20260509071859 49 263 0.0 1.7 0.01 0.16 0.02 93 1019.2
20260509070900 49 263 0.0 1.7 0.02 0.16 0.02 93 1019.2
20260509070359 49 107 0.0 1.7 0.02 0.16 0.02 93 1019.1
20260509065900 49 107 0.9 1.7 0.02 0.16 0.02 93 1019.1
20260509065400 49 107 0.0 1.7 0.02 0.16 0.02 93 1019.1
20260509064859 49 107 0.9 1.7 0.02 0.16 0.02 93 1019.1
20260509064400 49 107 0.9 1.7 0.02 0.16 0.02 93 1019.0
20260509063859 48 107 0.9 2.6 0.02 0.16 0.02 93 1018.9
20260509063359 49 107 0.9 2.6 0.02 0.16 0.02 93 1019.1
20260509062859 49 148 0.9 0.9 0.01 0.15 0.01 93 1019.0
20260509062359 48 148 0.0 1.7 0.01 0.15 0.01 92 1019.0
20260509061400 48 199 0.0 1.7 0.01 0.15 0.01 92 1019.1
20260509060859 48 199 0.9 2.6 0.00 0.14 0.00 92 1019.1
20260509060400 48 114 0.9 0.9 0.00 0.14 0.00 92 1019.1
20260509055900 48 112 0.0 1.7 0.00 0.14 0.00 92 1019.1
20260509055400 48 88 0.0 1.7 0.00 0.14 0.00 92 1019.2
20260509054900 48 88 0.0 1.7 0.00 0.14 0.00 92 1019.2
20260509054359 48 88 0.9 1.7 0.00 0.14 0.00 92 1019.2
20260509053400 48 88 0.0 1.7 0.00 0.14 0.00 91 1019.0
20260509052901 48 88 0.9 2.6 0.00 0.14 0.00 91 1019.0
20260509052401 48 102 0.9 1.7 0.00 0.14 0.00 91 1019.0
20260509050900 48 98 0.0 1.7 0.00 0.14 0.00 90 1018.9
20260509050359 48 98 0.9 2.6 0.00 0.14 0.00 90 1018.8
20260509045359 48 98 1.7 4.3 0.00 0.14 0.00 90 1018.8
20260509044859 48 106 0.9 2.6 0.00 0.14 0.00 90 1018.9
20260509044359 48 111 0.9 1.7 0.00 0.14 0.00 90 1018.9
20260509043900 48 95 1.7 2.6 0.00 0.14 0.00 90 1018.9
20260509043359 48 106 1.7 2.6 0.00 0.14 0.00 89 1018.9
20260509042900 48 138 1.7 2.6 0.00 0.14 0.00 89 1018.8
20260509041859 49 132 0.0 0.9 0.00 0.14 0.00 89 1018.7
20260509041359 49 132 0.9 1.7 0.00 0.14 0.00 89 1018.8
20260509040900 49 132 0.0 1.7 0.00 0.14 0.00 88 1018.7
20260509040359 49 132 0.0 1.7 0.00 0.14 0.00 88 1018.6
20260509035859 49 166 0.0 1.7 0.00 0.14 0.00 88 1018.6
20260509035359 49 166 0.0 2.6 0.00 0.14 0.00 88 1018.6
20260509034900 49 166 0.9 1.7 0.00 0.14 0.00 87 1018.5
20260509034359 49 20 0.9 2.6 0.00 0.14 0.00 87 1018.5
20260509033900 49 95 0.9 2.6 0.00 0.14 0.00 87 1018.5
20260509032359 49 108 0.9 4.3 0.00 0.14 0.00 86 1018.6
20260509031859 49 101 1.7 4.3 0.00 0.14 0.00 86 1018.5
20260509031359 49 159 0.9 1.7 0.00 0.14 0.00 86 1018.5
20260509030359 49 221 0.9 2.6 0.00 0.14 0.00 85 1018.6
20260509025859 49 183 1.7 2.6 0.00 0.14 0.00 85 1018.5
20260509025359 49 197 0.9 1.7 0.00 0.14 0.00 85 1018.4
20260509024859 49 42 0.9 2.6 0.00 0.14 0.00 85 1018.3
20260509024359 49 110 0.0 1.7 0.00 0.14 0.00 85 1018.4
20260509023359 49 110 0.9 2.6 0.00 0.14 0.00 85 1018.6
20260509021859 49 148 0.0 1.7 0.00 0.14 0.00 85 1018.5
20260509021358 49 148 0.9 2.6 0.00 0.14 0.00 85 1018.4
20260509020900 49 36 0.9 2.6 0.00 0.14 0.00 85 1018.4
20260509020359 49 36 0.9 2.6 0.00 0.14 0.00 85 1018.3
20260509015859 49 36 0.0 1.7 0.00 0.14 0.00 85 1018.4
20260509015359 49 36 0.0 0.0 0.00 0.14 0.00 85 1018.3
20260509014859 49 36 0.0 0.0 0.00 0.14 0.00 85 1018.4
20260509014359 49 36 0.0 0.9 0.00 0.14 0.00 85 1018.4
20260509012859 49 36 0.0 1.7 0.00 0.14 0.00 84 1018.5
20260509012359 49 36 0.0 1.7 0.00 0.14 0.00 84 1018.5
20260509011359 49 36 0.9 1.7 0.00 0.14 0.00 84 1018.4
20260509010859 49 36 0.9 1.7 0.00 0.14 0.00 84 1018.4
20260509010359 50 36 0.0 1.7 0.00 0.14 0.00 83 1018.5
20260509005859 50 36 0.0 0.0 0.00 0.14 0.00 83 1018.5
20260509005359 50 36 0.0 1.7 0.00 0.14 0.00 82 1018.5
20260509004900 50 36 0.0 1.7 0.00 0.14 0.00 82 1018.4
20260509004358 50 36 0.9 2.6 0.00 0.14 0.00 82 1018.5
20260509003859 50 36 0.9 1.7 0.00 0.14 0.00 81 1018.6
20260509003359 50 36 0.9 7.8 0.00 0.14 0.00 81 1018.6
20260509002859 50 36 0.0 1.7 0.00 0.14 0.00 81 1018.5
20260509002359 50 36 0.0 1.7 0.00 0.14 0.00 80 1018.5
20260509001859 50 36 0.0 1.7 0.00 0.14 0.00 80 1018.4
20260509001400 50 36 0.9 2.6 0.00 0.14 0.00 80 1018.4
20260509000859 51 36 0.0 1.7 0.00 0.14 0.00 81 1018.4
20260509000359 51 36 0.0 1.7 0.00 0.14 0.00 80 1018.4
20260508235859 51 329 0.0 2.6 0.00 0.14 0.00 80 1018.4
20260508235359 51 36 0.9 0.9 0.00 0.14 0.00 79 1018.5
20260508234359 51 6 1.7 2.6 0.00 0.14 0.00 79 1018.4
20260508233859 51 43 0.9 2.6 0.00 0.14 0.00 78 1018.4
20260508233359 51 328 1.7 4.3 0.00 0.14 0.00 78 1018.5
20260508232900 51 19 1.7 4.3 0.00 0.14 0.00 78 1018.4
20260508232359 51 80 0.9 2.6 0.00 0.14 0.00 76 1018.5
20260508231859 51 18 1.7 4.3 0.00 0.14 0.00 76 1018.4
20260508231359 51 65 1.7 5.2 0.00 0.14 0.00 76 1018.4
20260508230943 51 355 1.7 4.3 0.00 0.14 0.00 76 1018.4
20260508230359 51 26 0.9 1.7 0.00 0.14 0.00 76 1018.4
20260508225859 51 61 0.9 2.6 0.00 0.14 0.14 76 1018.5
20260508225359 51 110 0.9 2.6 0.00 0.14 0.14 77 1018.4
20260508224901 51 177 0.9 2.6 0.00 0.14 0.14 77 1018.3
20260508223859 51 18 0.9 4.3 0.00 0.14 0.14 77 1018.3
20260508223359 51 29 1.7 6.1 0.00 0.14 0.14 77 1018.3
20260508222859 51 24 0.9 5.2 0.00 0.14 0.14 76 1018.3
20260508222359 51 0 2.6 7.8 0.00 0.14 0.14 77 1018.3
20260508221859 51 19 1.7 2.6 0.00 0.14 0.14 78 1018.3
20260508215859 51 16 1.7 4.3 0.00 0.14 0.14 79 1018.3
20260508215359 51 5 1.7 5.2 0.00 0.14 0.14 79 1018.3
20260508214359 52 8 2.6 6.1 0.00 0.14 0.14 79 1018.2
20260508213859 52 5 1.7 6.1 0.00 0.14 0.14 78 1018.2
20260508213359 52 4 2.6 6.1 0.00 0.14 0.14 78 1018.2
20260508212859 52 348 2.6 6.1 0.00 0.14 0.14 79 1018.0
20260508212359 52 9 3.5 5.2 0.00 0.14 0.14 79 1018.0
20260508210359 52 4 2.6 6.1 0.00 0.14 0.14 79 1017.9
20260508205859 52 358 2.6 7.0 0.00 0.14 0.14 79 1017.9
20260508205358 52 0 2.6 6.1 0.00 0.14 0.14 79 1017.8
20260508204859 52 4 2.6 7.0 0.00 0.14 0.14 79 1017.8
20260508204359 52 4 2.6 6.1 0.00 0.14 0.14 80 1017.8
20260508203859 52 8 2.6 4.3 0.00 0.14 0.14 80 1017.7
20260508202900 52 8 2.6 6.1 0.00 0.14 0.14 80 1017.7
20260508202359 53 354 2.6 6.1 0.00 0.14 0.14 80 1017.7
20260508201859 53 10 1.7 4.3 0.00 0.14 0.14 80 1017.6
20260508201359 53 10 2.6 7.8 0.00 0.14 0.14 80 1017.6
20260508200859 53 16 2.6 7.0 0.00 0.14 0.14 81 1017.5
20260508200359 53 16 2.6 5.2 0.00 0.14 0.14 81 1017.4
20260508195859 53 344 1.7 5.2 0.00 0.14 0.14 81 1017.4
20260508195359 53 348 1.7 6.1 0.00 0.14 0.14 81 1017.3
20260508194859 53 1 2.6 5.2 0.00 0.14 0.14 80 1017.2
20260508194400 54 12 1.7 5.2 0.00 0.14 0.14 80 1017.2
20260508193859 54 3 2.6 7.0 0.00 0.14 0.14 79 1017.2
20260508193358 54 4 2.6 7.0 0.00 0.14 0.14 79 1017.1
20260508192859 54 11 1.7 5.2 0.00 0.14 0.14 80 1017.1
20260508192358 54 257 0.9 4.3 0.00 0.14 0.14 79 1017.1
20260508191859 54 99 0.9 2.6 0.00 0.14 0.14 79 1017.1
20260508190900 55 141 1.7 2.6 0.00 0.14 0.14 80 1016.9
20260508190359 55 126 0.9 2.6 0.00 0.14 0.14 80 1016.9
20260508185859 55 99 0.9 1.7 0.00 0.14 0.14 80 1016.9
20260508185358 55 92 0.9 4.3 0.00 0.14 0.14 79 1016.8
20260508184859 55 175 2.6 6.1 0.00 0.14 0.14 80 1016.8
20260508184359 55 145 0.9 2.6 0.00 0.14 0.14 80 1016.8
20260508183859 55 64 0.9 2.6 0.00 0.14 0.14 80 1016.6
20260508183359 55 355 1.7 4.3 0.00 0.14 0.14 81 1016.5
20260508182859 55 23 1.7 4.3 0.00 0.14 0.14 81 1016.4
20260508182359 55 358 1.7 4.3 0.00 0.14 0.14 80 1016.3
20260508181359 55 353 0.9 4.3 0.00 0.14 0.14 81 1016.3
20260508180859 55 355 2.6 4.3 0.00 0.14 0.14 81 1016.4
20260508175859 55 18 1.7 4.3 0.00 0.14 0.14 81 1016.4
20260508175359 56 351 2.6 5.2 0.00 0.14 0.14 81 1016.4
20260508174859 56 328 1.7 2.6 0.00 0.14 0.14 82 1016.3
20260508174359 56 351 0.9 2.6 0.00 0.14 0.14 82 1016.3
20260508173859 56 8 1.7 4.3 0.00 0.14 0.14 81 1016.2
20260508173359 56 14 2.6 4.3 0.00 0.14 0.14 81 1016.2
20260508172859 56 0 1.7 5.2 0.00 0.14 0.14 81 1016.1
20260508171359 56 47 1.7 2.6 0.00 0.14 0.14 80 1016.2
20260508170859 56 339 1.7 2.6 0.00 0.14 0.14 81 1016.1
20260508170359 56 10 0.9 5.2 0.00 0.14 0.14 81 1016.1
20260508165358 56 7 2.6 5.2 0.00 0.14 0.14 80 1016.0
20260508164900 56 353 1.7 4.3 0.00 0.14 0.14 81 1015.9
20260508164358 56 329 1.7 2.6 0.00 0.14 0.14 80 1016.0
20260508163859 56 7 2.6 4.3 0.00 0.14 0.14 80 1015.9
20260508162859 56 9 1.7 5.2 0.00 0.14 0.14 80 1015.9
20260508162359 56 356 1.7 5.2 0.00 0.14 0.14 80 1015.9
20260508161359 56 6 1.7 5.2 0.00 0.14 0.14 81 1015.9
20260508160859 56 348 2.6 6.1 0.00 0.14 0.14 82 1015.9
20260508160359 56 352 1.7 5.2 0.00 0.14 0.14 82 1015.9
20260508155858 56 347 1.7 2.6 0.02 0.14 0.14 82 1016.0
20260508154859 55 355 2.6 5.2 0.05 0.14 0.14 82 1016.0
20260508154359 55 345 0.9 2.6 0.05 0.14 0.14 82 1016.0
20260508153859 55 16 0.9 2.6 0.05 0.14 0.14 83 1016.0
20260508153358 55 353 0.9 2.6 0.05 0.14 0.14 83 1016.0
20260508152900 54 11 1.7 2.6 0.05 0.14 0.14 82 1016.0
20260508152359 55 349 1.7 2.6 0.05 0.14 0.14 82 1016.0
20260508151859 55 9 1.7 4.3 0.05 0.14 0.14 82 1016.0
20260508150900 56 26 0.9 2.6 0.05 0.14 0.14 80 1016.2
20260508150358 58 34 0.9 1.7 0.05 0.14 0.14 71 1016.2
20260508145858 58 173 0.0 1.7 0.02 0.12 0.12 70 1016.1
20260508144359 59 23 1.7 4.3 0.00 0.09 0.09 66 1015.9
20260508143859 59 131 0.9 1.7 0.00 0.09 0.09 68 1016.0
20260508143358 59 131 0.9 2.6 0.00 0.09 0.09 65 1016.0
20260508142859 60 102 0.9 2.6 0.00 0.09 0.09 66 1016.0
20260508142358 60 61 0.0 1.7 0.00 0.09 0.09 67 1016.0
20260508141859 59 61 0.0 1.7 0.00 0.09 0.09 69 1016.0
20260508141358 59 61 0.0 0.9 0.00 0.09 0.09 69 1016.1
20260508140859 59 61 0.0 0.9 0.00 0.09 0.09 67 1016.1
20260508140359 59 61 0.9 1.7 0.00 0.09 0.09 71 1016.1
20260508135859 58 72 0.0 2.6 0.00 0.09 0.09 68 1016.1
20260508135400 58 103 0.9 2.6 0.00 0.09 0.09 69 1016.2
20260508133859 58 134 0.0 0.9 0.00 0.09 0.09 71 1016.2
20260508133358 58 134 0.9 0.9 0.00 0.09 0.09 69 1016.3
20260508132358 58 134 0.9 2.6 0.00 0.09 0.09 66 1016.2
20260508131858 58 90 1.7 4.3 0.00 0.09 0.09 71 1016.2
20260508131400 58 71 2.6 4.3 0.00 0.09 0.09 71 1016.2
20260508130859 58 107 0.9 2.6 0.00 0.09 0.09 70 1016.3
20260508130358 58 92 0.9 2.6 0.00 0.09 0.09 73 1016.4
20260508125358 57 92 1.7 4.3 0.00 0.09 0.09 75 1016.4
20260508124858 56 96 0.9 1.7 0.00 0.09 0.09 76 1016.4
20260508124359 56 96 0.9 1.7 0.02 0.09 0.09 77 1016.4
20260508123858 56 97 0.0 1.7 0.02 0.09 0.09 82 1016.5
20260508123358 56 86 0.9 2.6 0.03 0.09 0.09 83 1016.4
20260508122859 55 86 0.9 2.6 0.03 0.09 0.09 82 1016.4
20260508122358 55 96 1.7 2.6 0.05 0.09 0.09 80 1016.5
20260508121859 55 107 0.9 2.6 0.08 0.09 0.09 82 1016.6
20260508121359 55 62 0.9 1.7 0.09 0.09 0.09 84 1016.5
20260508120358 55 57 0.9 2.6 0.09 0.09 0.09 86 1016.5
20260508115900 54 67 0.9 1.7 0.09 0.09 0.09 88 1016.5
20260508115400 54 350 0.9 1.7 0.09 0.09 0.09 89 1016.6
20260508114359 53 78 0.9 1.7 0.08 0.08 0.08 85 1016.7
20260508113859 53 92 0.9 2.6 0.07 0.07 0.07 83 1016.7